Flag for Colombia Weather past 2 weeks in Manizales, Colombia

Now
75 °F

Scattered clouds.


Feels Like: 77 °F
Forecast: 55 / 75 °F
Wind: 3 mph from Southeast

Location: Pereira / Matecana

Current Time: Feb 28, 2015 at 11:50:38 AM

Latest Report: Feb 28, 2015 at 11:00 AM


Visibility: N/A

Pressure: 30.10 "Hg

Humidity: 74%

Dew point: 66 °F

Location of ManizalesLocation

Historic Weather in Manizales — Graph

°F

Manizales temperature yesterday

Maximum temperature yesterday: 84 °F (at 4:00 PM)
Minimum temperature yesterday: 64 °F (at 5:00 AM)
Average temperature yesterday: 74 °F

Past Weeks' High & Low Weather Summary

 TemperatureHumidityPressure
High88 °F (Feb 22, 4:00 PM)100% (Feb 18, 8:00 AM)30.14 "Hg (Feb 18, 8:00 AM)
Low64 °F (Feb 24, 6:00 AM)43% (Feb 22, 4:00 PM)29.89 "Hg (Feb 16, 4:00 PM)
Average74 °F72%30.01 "Hg
* Reported Feb 13 10:00 AM — Feb 28 10:00 AM, Manizales, Weather by CustomWeather, © 2015

Note: Actual official high and low records may vary slightly from our data, if they occured in-between our weather recording intervals... More about our weather records

Advertising

Manizales weather history for previous 24 hours

 ConditionsComfort  
Time TempWeatherWind HumidityBarometerVisibility
10:00 AM
Sat, Feb 28
72 °FScattered clouds.6 mph78%30.12 "HgN/A
9:00 AM72 °FScattered clouds.2 mph78%30.11 "HgN/A
8:00 AM68 °FPassing clouds.2 mph83%30.09 "HgN/A
7:00 AM66 °FScattered clouds.2 mph88%30.07 "HgN/A
6:00 AM66 °FPassing clouds.3 mph88%30.03 "HgN/A
5:00 AM68 °FPassing clouds.3 mph88%30.02 "HgN/A
12:00 AM70 °FPassing clouds.7 mph78%30.03 "HgN/A
11:00 PM
Fri, Feb 27
70 °FPassing clouds.2 mph78%30.03 "HgN/A
10:00 PM70 °FPassing clouds.8 mph78%30.02 "HgN/A
9:00 PM72 °FPassing clouds.3 mph73%30.00 "HgN/A
8:00 PM72 °FPassing clouds.8 mph73%29.98 "HgN/A
7:00 PM75 °FPassing clouds.5 mph69%29.96 "HgN/A
6:00 PM79 °FScattered clouds.9 mph61%29.92 "HgN/A
5:00 PM81 °FScattered clouds.5 mph51%29.91 "HgN/A
4:00 PM84 °FPassing clouds.6 mph45%29.90 "HgN/A
3:00 PM81 °FPassing clouds.6 mph54%29.93 "HgN/A
2:00 PM82 °FPassing clouds.3 mph51%29.96 "HgN/A
1:00 PM82 °FScattered clouds.6 mph58%30.01 "Hg5 mi
12:00 PM79 °FPassing clouds.5 mph65%30.04 "Hg5 mi
11:00 AM75 °FScattered clouds.3 mph74%30.07 "Hg6 mi
Weather by CustomWeather, © 2015

See weather overviewHow to use our weather pages